Location: Engelsdorf
(49.2876°N, 12.5860°E)
Time: 04:44:47
(UTC+00:00)

Daily predictions for brighter satellites

Satellite Brightness Start Highest point End
(mag) Time Altitude Azimuth Time Altitude Azimuth Time Altitude Azimuth
ATLAS 3B R/B 4.5 00:42:49 24° NE 00:42:49 24° NE 00:46:57 10° ENE
CENTAUR R/B 4.3 00:51:56 33° N 00:52:54 34° NNE 01:00:20 10° E
SL-16 R/B 4.3 01:21:22 22° NNE 01:21:22 22° NNE 01:23:17 10° NNE
Cosmos 2219 Rocket 4.4 01:26:33 18° E 01:26:33 18° E 01:29:40 10° ENE
NOSS 3-2 (A) 4.3 01:35:34 59° NE 01:35:34 59° NE 01:43:16 10° ESE
USA 267 4.0 01:40:28 10° ENE 01:45:37 43° ESE 01:45:37 43° ESE
Cosmos 2322 Rocket 3.9 01:51:10 27° NNE 01:51:10 27° NNE 01:53:41 10° NNE
COSMOS 2428 4.3 01:51:53 29° E 01:51:53 29° E 01:56:25 10° NE
Resurs 1-4 Rocket 4.4 01:51:35 10° N 01:52:39 16° N 01:52:39 16° N
Cosmos 2360 Rocket 3.4 02:00:10 37° NNE 02:00:10 37° NNE 02:03:30 10° NNE
NOSS 3-2 (C) 4.4 01:56:45 43° NNW 01:59:04 59° NE 02:07:10 10° ESE
Cosmos 1980 Rocket 4.3 02:06:35 17° N 02:06:35 17° N 02:08:34 10° N
ARIANE 5 R/B 4.2 02:11:55 10° NNE 02:13:58 25° N 02:13:58 25° N
USA 234 3.1 02:15:42 10° ESE 02:22:14 87° NE 02:22:14 87° NE
ADEOS II 3.5 02:19:26 10° N 02:22:02 29° N 02:22:02 29° N
ATLAS 3B R/B 3.1 02:30:07 29° NNW 02:33:30 57° NE 02:40:12 10° ESE
BREEZE-M R/B 3.9 02:34:47 64° ESE 02:34:47 64° ESE 02:42:24 10° ENE
CZ-2D R/B 4.3 02:30:35 10° N 02:31:25 13° NNW 02:31:25 13° NNW
Cosmos 2278 Rocket 2.7 02:33:23 26° NNW 02:36:32 59° ENE 02:42:08 10° SE
COSMOS 2455 2.8 02:40:32 76° NNW 02:40:32 76° NNW 02:46:18 10° NE
H-2A R/B 4.4 02:39:20 10° NE 02:42:56 27° E 02:45:22 17° SE
Meteor 2-21 Rocket 4.3 02:43:25 76° NW 02:43:25 76° NW 02:49:26 10° N
Cosmos 1709 Rocket 3.9 02:43:21 65° S 02:44:22 88° ESE 02:50:47 10° N
Cosmos 2333 Rocket 2.3 02:44:00 66° SSE 02:44:30 71° ESE 02:50:12 10° NNE
CENTAUR R/B 3.3 02:39:09 21° NW 02:44:54 73° NE 02:53:33 10° SE
Gblst 52 Del rocket 4.1 02:51:18 69° NNW 02:51:34 71° N 02:57:17 10° E
IDEFIX/ARIANE 42P 2.8 02:50:53 10° NNE 02:56:08 65° ESE 02:58:15 35° S
NOSS 2-2 (C) 4.1 02:58:07 50° ENE 02:58:07 50° ENE 03:01:27 10° NE
Cosmos 2333 4.1 02:57:39 70° NW 02:57:39 70° NW 03:03:16 10° NNE
Aureole 1 Rocket 3.6 02:56:45 63° S 02:57:43 84° ESE 03:02:34 10° NNE
ATLAS 2AS CENTAUR R/B 3.4 02:54:26 27° SSW 02:59:00 62° ESE 03:06:54 10° NE
USA 238 DEB 3.9 03:01:10 53° WSW 03:01:17 53° WSW 03:08:25 10° SSE
USA 238 3.8 03:01:13 53° WSW 03:01:24 53° WSW 03:08:32 10° SSE
SL-16 R/B 3.8 03:03:15 21° NNW 03:03:15 21° NNW 03:06:51 10° N
Meteor 2-16 Rocket 4.3 03:05:52 60° WSW 03:06:26 63° WNW 03:12:29 10° N
Cosmos 2251 Rocket 3.7 03:07:07 55° NW 03:07:07 55° NW 03:12:06 10° NNE
Cosmos 2322 3.9 03:06:51 53° NW 03:06:51 53° NW 03:12:27 10° NNE
Cosmos 2219 Rocket 2.0 03:08:18 63° SW 03:09:13 80° WNW 03:14:51 10° NNE
GENESIS II 4.5 03:11:13 70° NE 03:11:13 70° NE 03:14:55 10° NE
PSLV R/B 3.4 03:07:43 10° NNE 03:12:00 84° ESE 03:12:05 83° SE
Cosmos 1025 Rocket 2.9 03:12:20 77° SSE 03:12:35 82° E 03:16:53 10° NNE
Spot 2 4.1 03:08:48 10° NNE 03:12:18 65° N 03:12:18 65° N
Cosmos 2237 Rocket 2.8 03:14:24 13° S 03:19:15 54° ESE 03:24:49 10° NE
Cosmos 1953 3.2 03:16:45 10° N 03:20:42 49° ENE 03:24:36 10° SSE
SL-24 R/B 4.4 03:16:47 10° NNE 03:21:05 90° SW 03:21:48 60° SSW
Cosmos 2074 Rocket 4.2 03:15:34 10° S 03:21:45 72° E 03:27:58 10° NNE
MSX 3.9 03:20:06 10° NNE 03:25:52 78° ESE 03:31:36 10° S
NOSS 3-2 (A) 4.2 03:23:04 33° WNW 03:26:08 47° WSW 03:34:01 10° S
ERBS 2.6 03:26:53 61° ESE 03:26:53 61° ESE 03:30:01 10° ENE
Cosmos 1758 3.1 03:25:20 10° NNW 03:29:21 79° W 03:33:22 10° S
USA 267 3.2 03:23:30 10° NE 03:30:01 72° NNW 03:32:58 35° W
Cosmos 2181 Rocket 4.1 03:24:02 10° NNW 03:30:09 50° W 03:36:09 10° SSW
CZ-2C R/B 3.1 03:25:32 10° NNE 03:30:42 58° E 03:35:47 10° S
Cosmos 292 Rocket 3.8 03:30:33 48° WNW 03:31:23 55° WSW 03:36:05 10° S
Cosmos 2369 Rocket 4.4 03:27:23 10° N 03:31:43 22° NE 03:36:01 10° E
Cosmos 44 2.9 03:32:06 58° WSW 03:32:08 58° WSW 03:36:21 10° SSE
NOSS 2-2 (E) 3.6 03:32:40 49° NW 03:32:45 49° NW 03:37:09 10° NE
Cosmos 2322 Rocket 3.9 03:33:00 17° NW 03:33:18 17° NW 03:36:54 10° N
Cosmos 1190 Rocket 4.4 03:30:15 10° S 03:35:29 65° ESE 03:40:45 10° NNE
COSMOS 2428 2.8 03:33:56 41° WSW 03:35:34 54° NW 03:41:09 10° NNE
Cosmos 1536 Rocket 3.6 03:36:16 51° WNW 03:36:17 51° WNW 03:40:33 10° N
Cosmos 407 Rocket 3.6 03:31:43 12° SSW 03:36:23 73° ESE 03:41:31 10° NNE
Cosmos 1980 3.8 03:31:43 15° SSW 03:36:25 76° ESE 03:42:06 10° NNE
Cosmos 489 Rocket 4.4 03:31:34 10° NNW 03:37:44 64° WSW 03:43:54 10° S
Cosmos 44 Rocket 4.1 03:35:01 13° NNW 03:39:02 49° NE 03:43:35 10° ESE
Meteor 1-31 Rocket 3.5 03:37:06 10° NNE 03:40:51 53° E 03:44:33 10° S
Cosmos 2360 Rocket 3.4 03:41:57 23° NW 03:42:34 23° NW 03:47:01 10° N
Cosmos 1470 2.8 03:43:50 10° NNW 03:47:39 50° W 03:51:25 10° S
Cosmos 1707 2.7 03:43:49 10° S 03:47:43 84° E 03:51:40 10° N
ADEOS 3.7 03:44:04 10° N 03:49:07 50° WNW 03:52:06 23° SW
NOSS 3-2 (C) 4.2 03:44:17 16° NW 03:50:07 49° WSW 03:58:04 10° S
Cosmos 1842 4.4 03:52:25 27° NW 03:52:25 27° NW 03:55:00 10° N
RESURS DK-1 4.2 03:48:12 10° S 03:51:53 32° ESE 03:55:35 10° NE
ARIANE 5 R/B 4.4 03:52:49 10° NNW 03:54:18 13° NW 03:54:18 13° NW
Cosmos 1726 3.2 03:53:17 10° N 03:56:51 47° ENE 04:00:24 10° SSE
USA 32 4.1 03:52:04 10° SSW 03:57:11 53° W 04:02:20 10° N
Cosmos 1484 Rocket 4.3 03:53:50 10° NNE 03:57:23 37° E 04:00:57 10° SSE
CZ-4B R/B 3.8 03:58:15 10° NNE 04:02:12 90° NW 04:06:20 10° SSW
Meteor 1-4 Rocket 2.4 03:59:51 10° S 04:03:21 87° ESE 04:06:51 10° NNE
ADEOS II 4.0 04:01:15 10° NNW 04:02:58 12° NW 04:02:58 12° NW
GP-B 3.5 04:00:02 10° SSE 04:04:25 67° E 04:08:51 10° N
Cosmos 1606 Rocket 3.4 04:01:25 10° NNW 04:05:44 67° W 04:10:00 10° S
USA 234 3.9 03:59:53 10° SSE 04:05:45 35° SW 04:09:35 19° W
Cosmos 1943 Rocket 3.6 04:00:50 10° NNW 04:06:05 37° NE 04:11:19 10° ESE
NOSS 3-4 (A) 3.4 04:03:38 12° SW 04:09:14 85° NW 04:15:45 10° NE
NOSS 3-4 (C) 3.4 04:03:39 12° SW 04:09:19 85° NW 04:15:51 10° NE
NOSS 2-2 (D) 4.3 04:09:57 25° WNW 04:11:23 33° NNW 04:15:31 10° NNE
Meteor 1-16 Rocket 4.0 04:06:12 10° NNW 04:11:32 80° W 04:16:53 10° S
Cosmos 1674 4.3 04:08:31 10° SSE 04:11:56 36° E 04:15:23 10° NNE
SL-16 R/B 3.0 04:06:55 10° S 04:12:25 55° ESE 04:17:58 10° NE
Cosmos 1954 Rocket 4.2 04:08:07 10° SSW 04:13:21 77° ESE 04:18:35 10° NNE
H-2A R/B 3.1 04:14:42 10° N 04:18:27 34° WNW 04:21:56 12° SW
Cosmos 1140 Rocket 3.4 04:14:37 10° SSW 04:19:48 74° WNW 04:25:00 10° NNE
Cosmos 2278 Rocket 3.1 04:15:36 10° NW 04:20:15 27° WSW 04:24:53 10° SSW
Cosmos 389 Rocket 2.9 04:17:48 13° SW 04:20:37 38° WNW 04:23:54 10° N
Cosmos 2297 3.7 04:15:35 10° NNW 04:21:21 74° WSW 04:27:03 10° SSE
PAYLOAD A 4.2 04:17:14 10° N 04:21:49 44° WNW 04:26:30 10° SW
Cosmos 614 Rocket 4.2 04:17:25 10° SW 04:22:30 51° WNW 04:27:35 10° NNE
ATLAS 3B R/B 3.1 04:17:51 10° NW 04:24:02 41° WSW 04:30:22 10° S
Cosmos 468 Rocket 4.5 04:19:45 10° NNW 04:24:55 63° ENE 04:30:00 10° SE
Cosmos 2154 Rocket 3.9 04:19:21 10° SSW 04:25:31 67° WNW 04:31:44 10° N
Okean 1-7 Rocket 3.5 04:22:34 10° SSW 04:27:01 80° W 04:31:33 10° N
COSMOS 2455 4.1 04:23:42 16° WNW 04:27:06 25° NNW 04:31:59 10° NNE
USA 116 3.6 04:25:28 10° SSE 04:29:12 76° ENE 04:32:35 10° N
Cosmos 2333 Rocket 3.3 04:26:03 16° W 04:29:20 27° NW 04:34:09 10° NNE
IDEFIX/ARIANE 42P 3.8 04:31:16 10° N 04:35:16 23° WNW 04:39:03 11° WSW
Cosmos 2184 Rocket 4.5 04:29:35 10° SW 04:35:20 38° WNW 04:41:12 10° N
CENTAUR R/B 3.7 04:28:09 10° NW 04:35:26 38° WSW 04:43:12 10° S
COSMO-SKYMED 1 2.6 04:31:51 10° S 04:36:08 61° W 04:40:28 10° NNW
Cosmos 1356 4.0 04:37:13 10° NNW 04:40:25 35° W 04:43:35 10° SSW
Nadezhda 3 Rocket 4.3 04:36:16 10° NNW 04:42:15 44° W 04:48:11 10° SSW
Gblst 52 Del rocket 4.3 04:38:15 12° WNW 04:43:22 68° SSW 04:49:18 10° SE
Meteor 2-5 Rocket 4.0 04:38:44 10° S 04:44:33 83° E 04:50:30 10° NNE
Cosmos 1726 Rocket 4.2 04:42:38 10° NNW 04:46:29 32° W 04:50:20 10° SSW
Cosmos 2228 3.7 04:42:46 10° NNW 04:46:30 30° W 04:50:12 10° SSW
Cosmos 1437 Rocket 2.6 04:43:09 10° SSW 04:46:55 68° WNW 04:50:43 10° N
CZ-4B R/B 3.7 04:46:24 10° N 04:49:58 30° WNW 04:53:23 10° SW
PSLV R/B 4.0 04:46:27 10° N 04:50:02 44° WNW 04:53:33 10° SW
ATLAS 2AS CENTAUR R/B 3.4 04:42:35 10° WSW 04:50:23 50° NW 04:58:06 10° NE
Cosmos 2341 Rocket 4.0 04:44:41 10° SSW 04:50:56 72° WNW 04:57:10 10° N
KORONAS-FOTON 3.7 04:48:41 10° S 04:52:28 86° W 04:56:17 10° N
SeaSat 1 4.4 04:49:28 10° NE 04:53:59 35° ESE 04:58:28 10° S
Cosmos 2219 Rocket 3.6 04:50:04 10° W 04:54:05 20° NW 04:58:09 10° N
ALOS 2.3 04:51:15 10° NNE 04:55:57 88° E 05:00:37 10° SSW
Cosmos 1953 3.8 04:54:10 10° NW 04:56:43 16° W 04:59:15 10° SW
Meteor PRIRODA 4.4 04:53:26 10° N 04:56:49 32° WNW 05:00:11 10° SW
Okean O Rocket 1.6 04:54:32 10° NNE 04:58:59 87° WNW 05:03:22 10° SSW
NOAA 6 4.2 04:57:43 10° NNE 05:02:57 87° ESE 05:08:07 10° SSW
ERBS 3.4 05:00:11 10° W 05:03:14 31° NNW 05:06:19 10° NE
Cosmos 2237 Rocket 3.0 04:58:31 10° WSW 05:03:36 33° NW 05:08:44 10° NNE
CZ-4B DEB 4.2 04:58:49 10° N 05:04:15 64° WNW 05:09:38 10° SSW
Cosmos 2058 Rocket 3.8 05:01:45 10° NNW 05:05:40 32° W 05:09:35 10° SSW
Cosmos 1602 Rocket 3.8 05:01:25 10° S 05:05:45 75° E 05:10:04 10° NNE
Cosmos 1763 Rocket 3.5 05:02:18 10° NNW 05:07:30 77° WSW 05:12:36 10° SSE
